Location: Newark
(49.8348°N, 24.0280°E)
Time: 03:58:22
(UTC+00:00)

Transit 2A - Pass Details

Date: 20 January 2020
Orbit: 600 x 959 km, 66.7° (Epoch: 17 February)

Event Time Altitude Azimuth Distance (km) Brightness Sun altitude
Rises 22:28:12 0° 285° (WNW) 2,854 - -60.2°
Reaches altitude 10° 22:31:52 10° 317° (NW) 1,954 - -60.2°
Maximum altitude 22:33:35 12° 341° (NNW) 1,832 - -60.2°
Drops below altitude 10° 22:35:19 10° 4° (N) 1,978 - -60.2°
Sets 22:39:06 0° 36° (NE) 2,933 - -60.2°
